Location: Fond Mahaut
(18.0707°N, 63.0465°W)
Time: 08:09:30
(UTC+00:00)

IRS-1C Rocket - Pass Details

Date: 08 December 2019
Orbit: 800 x 806 km, 99.0° (Epoch: 21 January)

Event Time Altitude Azimuth Distance (km) Brightness Sun altitude
Rises 21:50:33 0° 166° (SSE) 3,307 7.4 -3.9°
Reaches altitude 10° 21:52:52 10° 166° (SSE) 2,378 6.7 -4.4°
Maximum altitude 21:58:08 88° 79° (E) 809 4.2 -5.6°
Drops below altitude 10° 22:03:25 10° 348° (NNW) 2,381 6.5 -6.7°
Sets 22:05:45 0° 348° (NNW) 3,312 7.2 -7.2°
